sat.trackr.live / text

‹ back to catalog

FGN-100-D3

NORAD 68464 · 2026-067BA

PAYLOAD ACTIVE UNKNOWN

§ Identity

Operator
Country
TURK
Launch date
2026-03-30
Launch site
AFWTR
Launch vehicle
Mass (kg)
RCS (m²)

External: N2YO · Heavens-Above · Gunter

§ Orbital elements

Epoch: 2026-05-25T03:50:55.619808Z

Period
94.90 min
Inclination
97.4504°
Eccentricity
0.0004046
Mean motion
15.17449793 rev/d
Perigee alt
510.8 km
Apogee alt
516.3 km
Semi-major
6,891.7 km
B*
2.2266e-4
RAAN
103.8915°
Arg perigee
138.1859°
Mean anomaly
221.9685°
Rev number
844

§ Raw data

FGN-100-D31 68464U 26067BA  26145.16036597  .00004390  00000+0  22266-3 0  99902 68464  97.4504 103.8915 0004046 138.1859 221.9685 15.17449793  8444

JSON: /api/v1/satellites/68464 · /tle

For live sub-satellite position, see the globe view (requires WebGL).

§ Visibility from observer

Set your observer location to see the next 7 days of passes ≥ 10°. The values pass through the URL so the page stays shareable.

No JS? Fill the form by hand. The geolocation button needs JavaScript.